When you browse on this site, cookies collect data to enhance your experience and personalize the content and advertising you see.
Visit our Privacy Policy to learn more. By continuing to use the site, you agree to this use of cookies and data.
  • Em Portugal
  • Lista de países
  • Para 7 dias
  • Temperatura da água
  • Mapas de satélite
  • Mapa do tempo
  • Widgets de tempo
  • user-avatar
    Iniciar Sessão

    Previsão horária em Kandahar

    Hoje, 13 Dezembro, Quinta-feira

    Tempo Temperatura Precipitação Vento Pressão Humidade
    00:00 +9°C° 0 mm 1 m/s 677 mmHg 41%
    01:00 +9°C° 0 mm 1 m/s 677 mmHg 42%
    02:00 +8°C° 0 mm 1 m/s 677 mmHg 43%
    03:00 +8°C° 0 mm 1 m/s 677 mmHg 45%
    04:00 +6°C° 0 mm 0 m/s 677 mmHg 46%
    05:00 +6°C° 0 mm 0 m/s 677 mmHg 47%
    06:00 +6°C° 0 mm 0 m/s 677 mmHg 47%
    07:00 +6°C° 0 mm 0 m/s 677 mmHg 47%
    08:00 +8°C° 0 mm 0 m/s 678 mmHg 42%
    09:00 +11°C° 0 mm 1 m/s 678 mmHg 37%
    10:00 +13°C° 0 mm 1 m/s 679 mmHg 32%
    11:00 +13°C° 0 mm 1 m/s 679 mmHg 30%
    12:00 +14°C° 0 mm 1 m/s 678 mmHg 28%
    13:00 +15°C° 0 mm 1 m/s 678 mmHg 27%
    14:00 +15°C° 0 mm 1 m/s 678 mmHg 27%
    15:00 +15°C° 0 mm 1 m/s 678 mmHg 28%
    16:00 +15°C° 0 mm 1 m/s 678 mmHg 28%
    17:00 +13°C° 0 mm 1 m/s 678 mmHg 31%
    18:00 +12°C° 0 mm 1 m/s 678 mmHg 34%
    19:00 +10°C° 0 mm 0 m/s 678 mmHg 37%
    20:00 +10°C° 0 mm 0 m/s 678 mmHg 38%
    21:00 +9°C° 0 mm 0 m/s 678 mmHg 39%
    22:00 +9°C° 0 mm 0 m/s 678 mmHg 40%
    23:00 +8°C° 0 mm 0 m/s 678 mmHg 41%

    Amanhã, 14 Dezembro, Sexta-feira

    Tempo Temperatura Precipitação Vento Pressão Humidade
    00:00 +9°C° 0 mm 1 m/s 678 mmHg 41%
    01:00 +9°C° 0 mm 1 m/s 677 mmHg 42%
    02:00 +8°C° 0 mm 1 m/s 677 mmHg 43%
    03:00 +8°C° 0 mm 1 m/s 677 mmHg 43%
    04:00 +8°C° 0 mm 1 m/s 677 mmHg 43%
    05:00 +8°C° 0 mm 1 m/s 677 mmHg 43%
    06:00 +8°C° 0 mm 1 m/s 678 mmHg 44%
    07:00 +7°C° 0 mm 1 m/s 678 mmHg 44%
    08:00 +9°C° 0 mm 1 m/s 679 mmHg 38%
    09:00 +11°C° 0 mm 1 m/s 679 mmHg 33%
    10:00 +13°C° 0 mm 1 m/s 680 mmHg 28%
    11:00 +14°C° 0 mm 1 m/s 680 mmHg 26%
    12:00 +15°C° 0 mm 1 m/s 679 mmHg 24%
    13:00 +15°C° 0 mm 0 m/s 679 mmHg 22%
    14:00 +14°C° 0 mm 0 m/s 679 mmHg 23%
    15:00 +14°C° 0 mm 0 m/s 679 mmHg 24%
    16:00 +15°C° 0 mm 1 m/s 678 mmHg 25%
    17:00 +14°C° 0 mm 1 m/s 679 mmHg 27%
    18:00 +12°C° 0 mm 1 m/s 679 mmHg 30%
    19:00 +11°C° 0 mm 1 m/s 679 mmHg 33%
    20:00 +11°C° 0 mm 1 m/s 678 mmHg 33%
    21:00 +10°C° 0 mm 1 m/s 678 mmHg 34%
    22:00 +10°C° 0 mm 1 m/s 678 mmHg 35%
    23:00 +10°C° 0 mm 1 m/s 678 mmHg 35%

    Depois de amanhã, 15 Dezembro, Sábado

    Tempo Temperatura Precipitação Vento Pressão Humidade
    00:00 +9°C° 0 mm 1 m/s 678 mmHg 35%
    01:00 +9°C° 0 mm 1 m/s 678 mmHg 35%
    02:00 +9°C° 0 mm 1 m/s 678 mmHg 36%
    03:00 +8°C° 0 mm 1 m/s 677 mmHg 36%
    04:00 +8°C° 0 mm 1 m/s 677 mmHg 36%
    05:00 +8°C° 0 mm 1 m/s 677 mmHg 36%
    06:00 +8°C° 0 mm 1 m/s 678 mmHg 35%
    07:00 +8°C° 0 mm 1 m/s 678 mmHg 35%
    08:00 +10°C° 0 mm 1 m/s 679 mmHg 30%
    09:00 +12°C° 0 mm 1 m/s 679 mmHg 25%
    10:00 +14°C° 0 mm 1 m/s 680 mmHg 21%
    11:00 +15°C° 0 mm 1 m/s 680 mmHg 19%
    12:00 +16°C° 0 mm 1 m/s 679 mmHg 17%
    13:00 +16°C° 0 mm 1 m/s 679 mmHg 16%
    14:00 +15°C° 0 mm 0 m/s 679 mmHg 17%
    15:00 +15°C° 0 mm 0 m/s 678 mmHg 18%
    16:00 +14°C° 0 mm 0 m/s 678 mmHg 20%
    17:00 +13°C° 0 mm 0 m/s 678 mmHg 22%
    18:00 +12°C° 0 mm 0 m/s 678 mmHg 23%
    19:00 +10°C° 0 mm 0 m/s 679 mmHg 25%
    20:00 +10°C° 0 mm 0 m/s 678 mmHg 25%
    21:00 +9°C° 0 mm 0 m/s 678 mmHg 26%
    22:00 +9°C° 0 mm 0 m/s 678 mmHg 27%
    23:00 +10°C° 0 mm 1 m/s 678 mmHg 27%

    16 Dezembro, Domingo

    Tempo Temperatura Precipitação Vento Pressão Humidade
    00:00 +9°C° 0 mm 1 m/s 678 mmHg 27%
    01:00 +9°C° 0 mm 1 m/s 678 mmHg 27%
    02:00 +9°C° 0 mm 1 m/s 678 mmHg 27%
    03:00 +9°C° 0 mm 1 m/s 678 mmHg 27%
    04:00 +8°C° 0 mm 2 m/s 678 mmHg 27%
    05:00 +7°C° 0 mm 2 m/s 678 mmHg 27%
    06:00 +7°C° 0 mm 2 m/s 678 mmHg 26%
    07:00 +7°C° 0 mm 2 m/s 679 mmHg 26%
    08:00 +9°C° 0 mm 2 m/s 679 mmHg 23%
    09:00 +13°C° 0 mm 2 m/s 680 mmHg 19%
    10:00 +15°C° 0 mm 2 m/s 681 mmHg 15%
    11:00 +15°C° 0 mm 1 m/s 681 mmHg 14%
    12:00 +16°C° 0 mm 1 m/s 680 mmHg 13%
    13:00 +18°C° 0 mm 1 m/s 680 mmHg 12%
    14:00 +18°C° 0 mm 1 m/s 679 mmHg 13%
    15:00 +16°C° 0 mm 1 m/s 679 mmHg 15%
    16:00 +16°C° 0 mm 1 m/s 678 mmHg 16%
    17:00 +14°C° 0 mm 1 m/s 679 mmHg 17%
    18:00 +13°C° 0 mm 1 m/s 679 mmHg 19%
    19:00 +12°C° 0 mm 1 m/s 679 mmHg 20%
    20:00 +11°C° 0 mm 1 m/s 679 mmHg 21%
    21:00 +11°C° 0 mm 1 m/s 679 mmHg 22%
    22:00 +10°C° 0 mm 1 m/s 679 mmHg 23%
    23:00 +10°C° 0 mm 1 m/s 678 mmHg 23%

    17 Dezembro, Segunda-feira

    Tempo Temperatura Precipitação Vento Pressão Humidade
    00:00 +9°C° 0 mm 1 m/s 678 mmHg 24%
    01:00 +9°C° 0 mm 1 m/s 678 mmHg 24%
    02:00 +7°C° 0 mm 0 m/s 678 mmHg 25%
    03:00 +7°C° 0 mm 0 m/s 677 mmHg 25%
    04:00 +7°C° 0 mm 0 m/s 677 mmHg 26%
    05:00 +6°C° 0 mm 0 m/s 677 mmHg 26%
    06:00 +6°C° 0 mm 0 m/s 678 mmHg 26%
    07:00 +6°C° 0 mm 0 m/s 678 mmHg 26%
    08:00 +9°C° 0 mm 0 m/s 679 mmHg 23%
    09:00 +11°C° 0 mm 0 m/s 680 mmHg 19%
    10:00 +13°C° 0 mm 0 m/s 680 mmHg 15%
    11:00 +14°C° 0 mm 0 m/s 680 mmHg 14%
    12:00 +15°C° 0 mm 0 m/s 679 mmHg 13%
    13:00 +18°C° 0 mm 1 m/s 679 mmHg 13%
    14:00 +16°C° 0 mm 1 m/s 678 mmHg 14%
    15:00 +16°C° 0 mm 1 m/s 678 mmHg 15%
    16:00 +15°C° 0 mm 1 m/s 678 mmHg 16%
    17:00 +14°C° 0 mm 1 m/s 678 mmHg 18%
    18:00 +11°C° 0 mm 0 m/s 678 mmHg 20%
    19:00 +10°C° 0 mm 0 m/s 678 mmHg 22%
    20:00 +10°C° 0 mm 0 m/s 678 mmHg 22%
    21:00 +9°C° 0 mm 0 m/s 678 mmHg 23%
    22:00 +9°C° 0 mm 0 m/s 678 mmHg 23%
    23:00 +8°C° 0 mm 0 m/s 677 mmHg 23%

    18 Dezembro, Terça-feira

    Tempo Temperatura Precipitação Vento Pressão Humidade
    00:00 +9°C° 0 mm 1 m/s 677 mmHg 23%
    01:00 +9°C° 0 mm 1 m/s 677 mmHg 23%
    02:00 +8°C° 0 mm 1 m/s 676 mmHg 23%
    03:00 +8°C° 0 mm 1 m/s 676 mmHg 23%
    04:00 +8°C° 0 mm 1 m/s 676 mmHg 23%
    05:00 +8°C° 0 mm 1 m/s 676 mmHg 23%
    06:00 +8°C° 0 mm 1 m/s 676 mmHg 22%
    07:00 +8°C° 0 mm 1 m/s 676 mmHg 22%
    08:00 +10°C° 0 mm 1 m/s 677 mmHg 18%
    09:00 +13°C° 0 mm 1 m/s 678 mmHg 15%
    10:00 +15°C° 0 mm 1 m/s 678 mmHg 12%
    11:00 +16°C° 0 mm 1 m/s 678 mmHg 11%
    12:00 +18°C° 0 mm 1 m/s 677 mmHg 10%
    13:00 +19°C° 0 mm 1 m/s 677 mmHg 9%
    14:00 +18°C° 0 mm 1 m/s 676 mmHg 9%
    15:00 +18°C° 0 mm 1 m/s 676 mmHg 10%
    16:00 +16°C° 0 mm 1 m/s 675 mmHg 11%
    17:00 +15°C° 0 mm 1 m/s 675 mmHg 12%
    18:00 +14°C° 0 mm 1 m/s 675 mmHg 13%
    19:00 +13°C° 0 mm 1 m/s 675 mmHg 13%
    20:00 +12°C° 0 mm 1 m/s 675 mmHg 13%
    21:00 +12°C° 0 mm 1 m/s 675 mmHg 13%
    22:00 +11°C° 0 mm 1 m/s 675 mmHg 13%
    23:00 +10°C° 0 mm 2 m/s 674 mmHg 13%
    Mostrar mais